Location: Abraham Lincoln Continuation High School
(33.9711°N, 117.3662°W)
Time: 14:53:04
(UTC+00:00)

MetOp-A - Pass Details

Date: 21 September 2020
Orbit: 820 x 821 km, 98.5° (Epoch: 29 October)

Event Time Altitude Azimuth Distance (km) Brightness Sun altitude
Exits shadow 03:49:00 72° 97° (E) 864 4.0 -25.4°
Maximum altitude 03:49:13 73° 75° (ENE) 859 4.0 -25.5°
Drops below altitude 10° 03:54:34 10° 352° (N) 2,422 6.9 -26.5°
Sets 03:56:55 0° 350° (N) 3,358 7.7 -27.0°
